Location: Derby
(52.9213°N, 1.4761°W)
Time: 18:18:35
(UTC+01:00)

Tiros 1 - Pass Details

Date: 24 May 2025
Orbit: 620 x 651 km, 48.4° (Epoch: 13 June)

Event Time Altitude Azimuth Distance (km) Brightness Sun altitude
Rises 16:40:19 0° 211° (SSW) 2,882 11.0 37.8°
Reaches altitude 10° 16:43:06 10° 194° (SSW) 1,981 10.1 37.4°
Maximum altitude 16:46:24 20° 148° (SSE) 1,449 9.0 36.9°
Drops below altitude 10° 16:49:42 10° 101° (E) 1,995 9.3 36.4°
Sets 16:52:31 0° 85° (E) 2,909 10.0 36.0°
